Meteo orario Abhar

Oggi, 18 Giugno, Venerdi

Tempo Temperatura Precipitazioni Vento Pressione Umidità
00:00 +23°C° 0 mm 2 m/s 620 mm Hg 51%
01:00 +21°C° 0 mm 2 m/s 620 mm Hg 55%
02:00 +20°C° 0 mm 2 m/s 620 mm Hg 60%
03:00 +19°C° 0 mm 3 m/s 620 mm Hg 64%
04:00 +19°C° 0 mm 3 m/s 621 mm Hg 64%
05:00 +19°C° 0 mm 3 m/s 621 mm Hg 64%
06:00 +19°C° 0 mm 3 m/s 622 mm Hg 64%
07:00 +21°C° 0 mm 3 m/s 622 mm Hg 53%
08:00 +23°C° 0 mm 4 m/s 623 mm Hg 42%
09:00 +26°C° 0 mm 4 m/s 623 mm Hg 30%
10:00 +28°C° 0 mm 4 m/s 624 mm Hg 28%
11:00 +29°C° 0 mm 5 m/s 624 mm Hg 26%
12:00 +30°C° 0 mm 6 m/s 624 mm Hg 24%
13:00 +30°C° 0 mm 6 m/s 624 mm Hg 24%
14:00 +30°C° 0 mm 6 m/s 624 mm Hg 25%
15:00 +30°C° 0 mm 7 m/s 624 mm Hg 25%
16:00 +29°C° 0 mm 6 m/s 623 mm Hg 30%
17:00 +27°C° 0 mm 5 m/s 623 mm Hg 34%
18:00 +26°C° 0 mm 4 m/s 622 mm Hg 38%
19:00 +22°C° 0 mm 4 m/s 622 mm Hg 45%
20:00 +20°C° 0 mm 4 m/s 622 mm Hg 53%
21:00 +18°C° 0 mm 3 m/s 622 mm Hg 60%
22:00 +18°C° 0 mm 3 m/s 622 mm Hg 58%
23:00 +17°C° 0 mm 3 m/s 622 mm Hg 55%

Domani, 19 Giugno, Sabato

Tempo Temperatura Precipitazioni Vento Pressione Umidità
00:00 +17°C° 0 mm 3 m/s 622 mm Hg 52%
01:00 +17°C° 0 mm 3 m/s 622 mm Hg 50%
02:00 +16°C° 0 mm 3 m/s 622 mm Hg 48%
03:00 +16°C° 0 mm 2 m/s 622 mm Hg 46%
04:00 +17°C° 0 mm 2 m/s 623 mm Hg 42%
05:00 +18°C° 0 mm 2 m/s 623 mm Hg 39%
06:00 +18°C° 0 mm 2 m/s 624 mm Hg 35%
07:00 +21°C° 0 mm 3 m/s 625 mm Hg 32%
08:00 +23°C° 0 mm 5 m/s 625 mm Hg 28%
09:00 +27°C° 0 mm 6 m/s 626 mm Hg 24%
10:00 +28°C° 0 mm 7 m/s 626 mm Hg 22%
11:00 +30°C° 0 mm 7 m/s 626 mm Hg 19%
12:00 +32°C° 0 mm 8 m/s 626 mm Hg 16%
13:00 +33°C° 0 mm 8 m/s 626 mm Hg 14%
14:00 +34°C° 0 mm 8 m/s 626 mm Hg 13%
15:00 +35°C° 0 mm 8 m/s 625 mm Hg 11%
16:00 +33°C° 0 mm 7 m/s 625 mm Hg 14%
17:00 +32°C° 0 mm 6 m/s 625 mm Hg 17%
18:00 +29°C° 0 mm 6 m/s 624 mm Hg 20%
19:00 +27°C° 0 mm 5 m/s 624 mm Hg 27%
20:00 +25°C° 0 mm 4 m/s 624 mm Hg 33%
21:00 +21°C° 0 mm 3 m/s 624 mm Hg 40%
22:00 +21°C° 0 mm 3 m/s 624 mm Hg 40%
23:00 +21°C° 0 mm 2 m/s 623 mm Hg 39%

Dopodomani, 20 Giugno, Domenica

Tempo Temperatura Precipitazioni Vento Pressione Umidità
00:00 +21°C° 0 mm 2 m/s 623 mm Hg 39%
01:00 +20°C° 0 mm 2 m/s 623 mm Hg 39%
02:00 +20°C° 0 mm 2 m/s 623 mm Hg 39%
03:00 +20°C° 0 mm 2 m/s 623 mm Hg 39%
04:00 +20°C° 0 mm 2 m/s 623 mm Hg 35%
05:00 +21°C° 0 mm 3 m/s 624 mm Hg 32%
06:00 +22°C° 0 mm 3 m/s 624 mm Hg 28%
07:00 +25°C° 0 mm 4 m/s 625 mm Hg 22%
08:00 +28°C° 0 mm 6 m/s 625 mm Hg 17%
09:00 +31°C° 0 mm 8 m/s 626 mm Hg 11%
10:00 +32°C° 0 mm 8 m/s 626 mm Hg 11%
11:00 +33°C° 0 mm 8 m/s 626 mm Hg 11%
12:00 +34°C° 0 mm 8 m/s 626 mm Hg 10%
13:00 +35°C° 0 mm 8 m/s 626 mm Hg 10%
14:00 +35°C° 0 mm 7 m/s 626 mm Hg 10%
15:00 +35°C° 0 mm 6 m/s 625 mm Hg 10%
16:00 +33°C° 0 mm 6 m/s 625 mm Hg 17%
17:00 +30°C° 0 mm 6 m/s 624 mm Hg 23%
18:00 +28°C° 0 mm 5 m/s 624 mm Hg 29%
19:00 +26°C° 0 mm 4 m/s 623 mm Hg 38%
20:00 +23°C° 0 mm 4 m/s 623 mm Hg 47%
21:00 +20°C° 0 mm 3 m/s 623 mm Hg 56%
22:00 +20°C° 0 mm 3 m/s 623 mm Hg 58%
23:00 +19°C° 0 mm 2 m/s 623 mm Hg 60%

21 Giugno, Lunedi

Tempo Temperatura Precipitazioni Vento Pressione Umidità
00:00 +19°C° 0 mm 2 m/s 622 mm Hg 62%
01:00 +18°C° 0 mm 2 m/s 622 mm Hg 63%
02:00 +18°C° 0 mm 2 m/s 622 mm Hg 64%
03:00 +17°C° 0 mm 2 m/s 622 mm Hg 65%
04:00 +18°C° 0 mm 2 m/s 623 mm Hg 61%
05:00 +19°C° 0 mm 2 m/s 623 mm Hg 57%
06:00 +20°C° 0 mm 2 m/s 624 mm Hg 53%
07:00 +22°C° 0 mm 3 m/s 624 mm Hg 45%
08:00 +26°C° 0 mm 3 m/s 625 mm Hg 36%
09:00 +28°C° 0 mm 4 m/s 625 mm Hg 28%
10:00 +29°C° 0 mm 4 m/s 626 mm Hg 26%
11:00 +30°C° 0 mm 5 m/s 626 mm Hg 24%
12:00 +32°C° 0 mm 6 m/s 626 mm Hg 21%
13:00 +32°C° 0 mm 6 m/s 626 mm Hg 22%
14:00 +32°C° 0 mm 6 m/s 625 mm Hg 22%
15:00 +32°C° 0 mm 6 m/s 625 mm Hg 23%
16:00 +30°C° 0 mm 5 m/s 625 mm Hg 26%
17:00 +28°C° 0 mm 5 m/s 624 mm Hg 29%
18:00 +27°C° 0 mm 4 m/s 624 mm Hg 32%
19:00 +25°C° 0 mm 4 m/s 624 mm Hg 39%
20:00 +22°C° 0 mm 3 m/s 623 mm Hg 46%
21:00 +20°C° 0 mm 3 m/s 623 mm Hg 53%
22:00 +19°C° 0 mm 2 m/s 623 mm Hg 52%
23:00 +19°C° 0 mm 2 m/s 623 mm Hg 51%

22 Giugno, Martedi

Tempo Temperatura Precipitazioni Vento Pressione Umidità
00:00 +18°C° 0 mm 2 m/s 623 mm Hg 50%
01:00 +18°C° 0 mm 2 m/s 623 mm Hg 48%
02:00 +18°C° 0 mm 2 m/s 623 mm Hg 45%
03:00 +18°C° 0 mm 2 m/s 623 mm Hg 42%
04:00 +19°C° 0 mm 2 m/s 623 mm Hg 40%
05:00 +21°C° 0 mm 1 m/s 624 mm Hg 39%
06:00 +22°C° 0 mm 1 m/s 625 mm Hg 37%
07:00 +24°C° 0 mm 2 m/s 625 mm Hg 31%
08:00 +26°C° 0 mm 3 m/s 626 mm Hg 25%
09:00 +28°C° 0 mm 4 m/s 626 mm Hg 20%
10:00 +30°C° 0 mm 4 m/s 626 mm Hg 18%
11:00 +32°C° 0 mm 5 m/s 627 mm Hg 16%
12:00 +33°C° 0 mm 5 m/s 627 mm Hg 13%
13:00 +34°C° 0 mm 5 m/s 626 mm Hg 13%
14:00 +35°C° 0 mm 5 m/s 626 mm Hg 12%
15:00 +35°C° 0 mm 5 m/s 626 mm Hg 11%
16:00 +34°C° 0 mm 5 m/s 626 mm Hg 14%
17:00 +32°C° 0 mm 4 m/s 625 mm Hg 16%
18:00 +30°C° 0 mm 4 m/s 625 mm Hg 19%
19:00 +28°C° 0 mm 3 m/s 625 mm Hg 22%
20:00 +25°C° 0 mm 3 m/s 624 mm Hg 26%
21:00 +23°C° 0 mm 2 m/s 624 mm Hg 29%
22:00 +23°C° 0 mm 2 m/s 624 mm Hg 29%
23:00 +21°C° 0 mm 2 m/s 624 mm Hg 30%

23 Giugno, Mercoledi

Tempo Temperatura Precipitazioni Vento Pressione Umidità
00:00 +21°C° 0 mm 2 m/s 623 mm Hg 30%
01:00 +20°C° 0 mm 2 m/s 623 mm Hg 31%
02:00 +20°C° 0 mm 2 m/s 623 mm Hg 32%
03:00 +19°C° 0 mm 2 m/s 623 mm Hg 33%
04:00 +21°C° 0 mm 1 m/s 624 mm Hg 31%
05:00 +23°C° 0 mm 1 m/s 625 mm Hg 29%
06:00 +24°C° 0 mm 1 m/s 625 mm Hg 27%
07:00 +26°C° 0 mm 1 m/s 626 mm Hg 23%
08:00 +28°C° 0 mm 2 m/s 626 mm Hg 18%
09:00 +30°C° 0 mm 2 m/s 627 mm Hg 14%
10:00 +33°C° 0 mm 3 m/s 627 mm Hg 13%
11:00 +34°C° 0 mm 4 m/s 627 mm Hg 12%
12:00 +35°C° 0 mm 4 m/s 627 mm Hg 11%
13:00 +35°C° 0 mm 5 m/s 627 mm Hg 11%
14:00 +36°C° 0 mm 5 m/s 627 mm Hg 11%
15:00 +36°C° 0 mm 5 m/s 627 mm Hg 11%
16:00 +34°C° 0 mm 5 m/s 626 mm Hg 12%
17:00 +33°C° 0 mm 4 m/s 626 mm Hg 13%
18:00 +31°C° 0 mm 3 m/s 626 mm Hg 15%
19:00 +28°C° 0 mm 3 m/s 625 mm Hg 19%
20:00 +26°C° 0 mm 3 m/s 625 mm Hg 23%
21:00 +22°C° 0 mm 3 m/s 624 mm Hg 28%
22:00 +22°C° 0 mm 3 m/s 624 mm Hg 29%
23:00 +21°C° 0 mm 2 m/s 624 mm Hg 30%
Mostrare altro

Abbiamo bisogno del tuo consenso

Meteoprog e i nostri fornitori di servizi possono memorizzare e accedere a dati personali come cookie, identificatori di dispositivi o altre tecnologie simili sul tuo dispositivo e possono elaborare tali dati per personalizzare i contenuti e gli annunci, nonché fornire funzionalità dei social media e analizzarne il traffico.

  • Archiviare e/o accedere alle informazioni sul tuo dispositivo

    Cookie, identificatori di dispositivi o altre informazioni possono essere memorizzati o resi accessibili sul tuo dispositivo per le finalità sopra indicate.

  • Annunci e contenuti personalizzati, misurazione di annunci e contenuti, approfondimenti sul pubblico e sviluppo di prodotti

    Gli annunci e i contenuti possono essere personalizzati in base a un profilo. È possibile aggiungere più dati per personalizzare meglio annunci e contenuti. È possibile misurare il rendimento degli annunci e dei contenuti. È possibile ricavare informazioni sul pubblico che ha visto gli annunci e i contenuti. Tali dati possono essere utilizzati per sviluppare o migliorare l'esperienza, i sistemi e il software dell'utente.

Cliccando su “Accetto”, acconsenti all'uso di cookie, identificatori di dispositivo, web beacon o altre tecnologie simili. Puoi modificare le impostazioni nel browser del tuo dispositivo.

Per determinati scopi, è possibile fare affidamento su interessi legali, piuttosto che sul consenso. Puoi approfondire questo argomento consultando la nostra Informativa sulla privacy e sui cookie.